Location: Willingham
(52.3167°N, 0.0667°E)
Time: 01:11:32
(UTC+00:00)

Cosmos 2360 Rocket - Pass Details

Date: 19 May 2025
Orbit: 834 x 842 km, 71.0° (Epoch: 18 June)

Event Time Altitude Azimuth Distance (km) Brightness Sun altitude
Rises 23:07:40 0° 329° (NNW) 3,395 6.7 -16.9°
Reaches altitude 10° 23:10:08 10° 333° (NNW) 2,457 5.8 -17.0°
Maximum altitude 23:15:45 65° 55° (NE) 917 2.4 -17.2°
Enters shadow 23:19:32 21° 133° (SE) 1,794 3.5 -17.3°
